カタログに戻る

ATLAS 5 CENTAUR DEB

LostHEO
NORAD 55852·DEBRIS·🇺🇸 United States

打ち上げ Oct 17, 2018 から Cape Canaveral Space Force Station

Loading…

次のパス (今後24時間)

TLE

古いSource: Space-Track

元期: May 6, 2024, 03:30 UTC

1 55852U 18079HE  24127.14625535 -.00000049  00000-0  00000+0 0  9990
2 55852  12.3328  75.2299 4526346 262.6109  45.5959  2.06031400 10347

AllMySatでATLAS 5 CENTAUR DEBをリアルタイム追跡

Download on the App Store